HST 1 20580U 90037B 25186.62641787 .00005110 00000-0 18791-3 0 9993 2 20580 28.4686 279.9154 0001721 304.5187 55.5245 15.25487684735503 ISS (ZARYA) 1 25544U 98067A 25187.21521352 .00007482 00000-0 13705-3 0 9994 2 25544 51.6341 212.7627 0002517 339.7243 20.3646 15.50395869518113 CXO 1 25867U 99040B 25187.94942826 .00000511 00000-0 00000-0 0 9994 2 25867 49.8968 128.8299 8389429 309.7726 0.3708 0.37803286 16013